Temperature
-3 -4 -5 -5 -6 -7 -8 -8 -9 -8 -7 -7 -7 -7 -7 -8 -8 -8 -8 -8 -8 -8 -8 -8 -8 -7 -7 -7 -6 -5 -5 -4 -3 -2 -1 -0 1 2
-3 -4 -5 -5 -6 -7 -8 -8 -9 -9 -9 -8 -7 -7 -8 -8 -8 -8 -8 -9 -9 -8 -8 -8 -8 -8 -7 -7 -6 -6 -5 -5 -4 -3 -2 -1 1 2
-3 -4 -4 -5 -6 -7 -8 -8 -9 -9 -9 -8 -8 -8 -8 -8 -8 -8 -8 -9 -9 -9 -9 -9 -8 -8 -8 -7 -7 -6 -6 -5 -4 -3 -3 -1 -0 1
-3 -4 -4 -5 -6 -7 -8 -8 -9 -9 -9 -9 -9 -8 -8 -8 -8 -8 -9 -9 -9 -9 -9 -9 -9 -8 -8 -7 -7 -6 -6 -5 -5 -4 -3 -2 -1 0
-3 -4 -4 -5 -6 -7 -7 -8 -8 -9 -9 -9 -9 -8 -8 -8 -8 -8 -9 -9 -9 -9 -9 -9 -9 -9 -8 -8 -7 -7 -6 -6 -5 -4 -3 -2 -2 -0
-4 -4 -4 -5 -6 -6 -7 -8 -8 -9 -9 -9 -9 -8 -8 -8 -8 -9 -9 -9 -9 -9 -9 -9 -9 -9 -8 -8 -7 -7 -6 -6 -5 -5 -4 -3 -2 -1
-4 -4 -4 -5 -6 -6 -7 -7 -8 -8 -9 -8 -8 -8 -8 -8 -8 -9 -9 -9 -9 -9 -9 -9 -9 -9 -9 -8 -8 -7 -6 -6 -5 -5 -4 -3 -2 -1
-4 -4 -5 -5 -6 -7 -7 -8 -8 -8 -8 -8 -8 -8 -8 -8 -9 -9 -9 -9 -9 -9 -10 -9 -9 -9 -9 -8 -8 -7 -7 -6 -5 -5 -4 -3 -2 -2
-4 -5 -5 -5 -6 -7 -7 -8 -8 -8 -8 -8 -8 -9 -9 -9 -9 -9 -10 -10 -10 -10 -10 -10 -10 -9 -9 -9 -8 -7 -7 -6 -6 -5 -4 -3 -3 -2
-5 -5 -5 -6 -6 -7 -8 -8 -8 -8 -8 -9 -9 -9 -9 -9 -10 -10 -10 -10 -10 -10 -10 -10 -10 -10 -9 -8 -8 -8 -7 -7 -6 -5 -4 -4 -3 -2
-5 -5 -5 -6 -6 -7 -8 -8 -8 -8 -8 -9 -9 -9 -9 -9 -9 -10 -10 -10 -10 -10 -10 -11 -10 -10 -9 -9 -8 -8 -7 -7 -6 -5 -4 -4 -3 -2
-5 -5 -5 -6 -6 -7 -8 -8 -8 -8 -8 -9 -9 -9 -9 -9 -10 -10 -11 -11 -11 -11 -11 -11 -11 -11 -10 -9 -9 -8 -8 -7 -6 -5 -4 -4 -3 -3
-6 -6 -6 -6 -7 -8 -8 -8 -8 -8 -9 -9 -9 -9 -10 -10 -10 -11 -11 -11 -12 -12 -12 -12 -12 -12 -12 -11 -9 -8 -8 -8 -7 -6 -5 -4 -3 -3
-6 -6 -6 -7 -7 -8 -8 -8 -9 -9 -9 -10 -10 -10 -10 -10 -11 -11 -11 -11 -12 -12 -12 -12 -12 -12 -12 -12 -11 -9 -9 -8 -7 -6 -5 -4 -3 -2
-6 -6 -7 -7 -8 -8 -8 -9 -9 -10 -10 -10 -10 -10 -11 -11 -11 -11 -11 -11 -12 -12 -12 -12 -12 -12 -12 -12 -12 -11 -10 -8 -8 -7 -6 -5 -4 -3
-7 -7 -7 -8 -8 -8 -9 -9 -10 -10 -10 -11 -11 -11 -11 -11 -11 -12 -12 -12 -12 -12 -12 -12 -12 -12 -12 -12 -12 -11 -10 -9 -7 -7 -6 -5 -4 -3
-7 -7 -8 -8 -9 -9 -9 -10 -10 -11 -11 -11 -11 -11 -11 -12 -12 -12 -12 -12 -12 -12 -12 -12 -12 -12 -12 -12 -12 -11 -10 -9 -8 -7 -6 -5 -4 -3
-7 -8 -8 -9 -9 -9 -10 -10 -10 -11 -11 -11 -11 -12 -12 -12 -12 -12 -12 -12 -12 -12 -12 -12 -12 -12 -12 -11 -11 -10 -9 -9 -8 -7 -7 -5 -4 -3
-8 -8 -8 -9 -9 -9 -10 -10 -11 -11 -11 -11 -12 -12 -12 -12 -12 -12 -12 -12 -12 -12 -12 -12 -12 -12 -12 -11 -10 -9 -9 -8 -8 -7 -6 -5 -4 -2
-8 -8 -9 -9 -9 -10 -10 -10 -11 -11 -11 -11 -12 -12 -12 -12 -12 -12 -13 -13 -13 -12 -12 -12 -12 -12 -12 -11 -11 -10 -9 -8 -8 -7 -6 -5 -4 -2
-8 -8 -8 -9 -9 -10 -10 -10 -11 -11 -11 -12 -12 -12 -12 -12 -12 -12 -13 -13 -13 -13 -12 -12 -12 -12 -12 -11 -11 -9 -8 -8 -7 -7 -6 -5 -4 -3
-8 -8 -8 -9 -9 -10 -10 -10 -11 -11 -11 -11 -12 -12 -12 -12 -12 -12 -13 -13 -13 -13 -12 -12 -12 -11 -11 -11 -11 -9 -8 -7 -7 -6 -5 -5 -3 -2
-8 -8 -8 -9 -9 -10 -10 -10 -11 -11 -11 -11 -12 -12 -12 -12 -12 -12 -12 -12 -12 -12 -12 -12 -12 -11 -11 -11 -10 -9 -8 -7 -6 -5 -4 -3 -2 -1
Wind_Speed
17 17 15 13 13 13 13 14 14 16 18 18 15 15 16 18 21 22 23 27 30 31 32 33 33 33 33 33 32 32 31 30 29 27 27 26 26 25
14 16 16 14 13 13 13 14 14 16 18 17 16 17 17 17 23 23 24 28 30 31 32 32 33 33 32 32 32 31 30 29 28 28 27 26 25 24
17 17 18 17 14 13 13 14 15 15 18 19 18 18 21 20 19 21 22 22 22 28 30 31 32 32 32 31 31 30 29 28 27 28 26 25 24 23
19 18 18 15 17 15 14 16 15 16 17 21 20 18 21 21 20 20 18 19 20 25 29 30 31 31 30 30 30 29 28 27 27 27 26 25 24 22
19 19 18 17 18 16 16 16 15 15 16 18 20 18 18 17 19 19 19 17 18 21 25 27 28 29 29 29 29 29 28 27 27 26 26 25 24 23
18 18 18 18 18 17 15 17 16 17 17 17 18 18 17 18 16 16 16 15 15 16 19 21 23 26 27 28 28 27 26 26 27 26 26 24 22 22
18 18 18 20 22 19 15 16 16 15 16 16 17 16 16 15 14 14 15 16 16 15 14 15 15 15 16 20 23 24 24 25 25 25 25 23 22 21
17 17 17 20 23 26 27 26 23 19 18 17 17 17 18 17 15 14 15 16 17 13 13 15 14 15 14 13 18 22 23 24 24 24 24 23 22 22
17 16 14 15 19 17 21 24 25 27 26 21 20 19 19 17 17 18 17 17 18 15 14 16 14 15 13 14 21 22 23 23 24 24 24 23 22 22
17 17 16 16 15 17 16 17 18 19 21 18 17 19 18 18 17 17 18 18 18 15 14 15 14 14 14 13 18 20 21 21 22 23 24 23 22 22
16 16 16 16 20 21 17 17 18 17 20 23 24 24 26 26 20 14 14 14 15 13 11 11 13 13 14 13 13 16 18 19 20 20 21 21 21 20
14 14 20 19 20 21 16 16 17 16 14 14 16 18 17 17 20 14 13 12 13 12 8 8 11 10 10 10 9 9 11 14 17 18 19 19 19 15
12 11 12 19 21 21 19 15 17 15 13 13 12 12 12 11 12 11 11 11 13 13 10 9 10 10 10 10 10 9 9 9 10 12 15 18 19 17
12 10 11 16 18 19 16 15 18 16 10 10 11 11 11 11 10 11 11 12 13 15 14 13 12 12 12 13 11 9 9 9 9 9 9 13 16 20
11 14 15 16 15 13 14 16 14 10 10 10 11 11 11 11 11 10 11 11 13 14 14 15 14 13 13 13 13 12 10 9 9 9 9 9 10 11
12 13 15 14 11 11 12 11 9 9 9 10 11 11 10 10 10 10 10 10 10 11 12 14 14 15 13 15 14 14 12 8 7 8 8 9 9 10
10 8 7 7 8 8 8 8 8 8 9 9 10 10 10 10 10 9 9 10 11 11 10 9 10 12 15 14 14 14 13 12 12 11 10 9 9 11
11 8 8 8 8 8 8 8 8 8 8 8 9 9 10 10 10 9 9 10 11 11 11 9 8 9 9 12 17 15 13 12 10 10 10 9 10 11
10 9 8 8 8 7 7 8 8 8 8 8 9 9 9 9 10 10 10 10 11 11 11 10 9 9 10 11 9 15 13 11 9 9 10 10 10 10
9 9 8 8 7 7 7 7 8 7 7 8 9 9 9 9 10 10 10 11 11 11 11 10 9 9 11 11 9 8 13 12 10 9 9 9 9 10
9 8 8 7 7 7 7 7 8 8 8 8 9 9 9 9 10 10 11 14 13 11 11 10 10 12 10 9 9 10 10 14 15 10 9 8 8 8
8 8 7 7 7 7 7 7 7 8 8 8 8 8 8 9 10 12 11 11 10 11 12 11 9 9 8 10 11 12 11 9 13 19 19 15 8 8
7 7 7 6 7 6 6 7 8 8 8 8 8 8 9 9 9 10 11 11 11 11 11 10 9 8 9 10 11 11 12 10 8 9 11 19 24 23
Wind_Direction
229 231 235 240 243 246 249 252 262 276 280 283 284 281 280 277 276 278 278 279 281 283 284 285 285 286 285 285 286 285 286 285 286 284 279 278 274 277
228 233 236 240 243 245 247 250 251 259 272 279 282 282 282 279 278 278 277 279 280 281 282 283 284 284 283 284 283 282 283 282 284 283 279 277 275 277
226 231 235 238 242 245 247 249 251 254 264 274 278 281 281 279 279 277 276 277 278 278 280 282 282 282 282 281 281 280 281 281 281 281 279 276 277 279
227 230 235 236 240 244 247 250 252 254 260 271 277 280 279 280 279 279 278 276 275 277 280 281 281 280 280 280 279 278 279 279 279 278 278 276 277 280
227 229 233 235 240 243 245 250 253 256 258 265 272 276 278 278 280 279 277 276 276 276 278 279 278 279 279 278 276 275 275 275 275 275 274 274 274 276
228 231 233 234 238 243 247 250 254 258 259 262 268 273 276 278 278 279 281 279 278 279 278 277 277 278 277 275 273 272 272 271 270 272 271 271 271 272
229 231 233 235 238 241 244 249 252 255 260 263 269 274 276 279 279 281 281 282 281 280 280 279 279 276 276 273 269 267 269 269 268 268 268 267 268 267
229 232 235 240 244 248 251 255 256 260 265 269 273 275 277 280 282 281 281 282 284 281 280 281 280 277 274 269 269 269 268 267 266 265 263 263 263 262
226 231 235 239 244 248 256 260 264 265 265 268 271 274 279 280 282 281 277 277 279 282 283 280 279 277 276 272 271 269 267 266 264 262 262 262 260 258
227 231 237 242 243 247 253 258 261 262 264 265 267 270 273 276 275 274 277 278 277 274 270 274 278 280 281 276 273 266 266 266 263 259 259 256 254 255
228 231 236 242 247 251 256 260 264 266 266 264 265 267 269 272 272 275 274 275 277 278 272 268 276 283 282 277 271 267 266 266 265 262 258 253 251 250
228 230 235 240 248 253 256 261 267 272 273 272 270 272 273 274 274 269 269 269 274 277 268 264 275 284 282 275 275 274 268 265 264 262 259 255 249 246
227 230 232 240 248 255 259 264 269 276 278 275 274 274 271 268 265 261 257 256 263 264 267 268 272 273 270 278 281 278 273 271 268 263 257 252 246 241
227 232 235 242 251 257 262 266 275 282 278 277 276 276 276 276 273 268 260 254 254 260 265 264 264 266 269 274 274 273 273 270 267 264 259 251 243 238
228 233 239 247 254 260 263 270 275 275 274 275 276 278 281 282 280 275 267 259 257 257 257 252 252 256 256 261 267 272 277 275 267 260 258 251 239 231
234 237 241 248 251 256 264 267 263 264 268 272 277 281 283 281 278 276 275 273 271 268 256 248 247 248 252 256 261 266 264 263 264 261 260 256 246 236
216 223 229 236 242 249 254 257 258 261 266 269 276 280 281 281 280 278 275 274 272 274 274 262 247 244 248 254 257 257 257 256 255 259 260 256 246 236
211 223 228 235 243 251 256 259 260 262 266 272 275 277 280 282 283 281 276 273 274 274 274 273 265 259 254 247 237 249 251 251 251 248 246 247 243 236
217 225 231 236 243 249 254 258 261 264 268 270 273 276 278 280 282 282 280 277 276 276 275 272 264 258 260 266 247 225 236 246 246 243 240 237 236 234
219 225 230 235 240 246 251 256 262 266 267 269 272 274 276 278 280 281 281 280 280 280 278 270 260 254 256 265 270 259 235 240 244 241 240 238 239 246
216 223 228 233 239 244 249 254 260 264 267 270 273 274 275 277 278 281 282 283 281 279 278 275 270 267 264 262 262 258 251 238 238 242 238 233 226 221
216 222 227 232 237 242 247 252 258 262 265 267 271 275 276 277 278 281 282 283 281 279 280 278 275 266 253 251 256 265 267 257 243 243 247 243 227 206
217 221 226 230 234 239 245 251 257 263 266 269 272 276 277 278 279 281 282 281 281 281 282 282 277 265 257 254 257 261 263 261 252 240 239 237 241 252
Height
1451 1451 1450 1450 1450 1449 1448 1446 1444 1437 1431 1429 1428 1426 1423 1419 1414 1410 1406 1401 1397 1393 1389 1386 1382 1379 1376 1374 1371 1369 1366 1365 1363 1363 1364 1365 1367 1369
1441 1441 1441 1441 1440 1440 1438 1437 1435 1430 1423 1419 1418 1416 1414 1410 1406 1402 1397 1393 1388 1384 1380 1376 1373 1370 1367 1365 1363 1361 1359 1357 1356 1355 1356 1358 1360 1362
1431 1431 1431 1431 1430 1430 1429 1427 1425 1422 1416 1409 1409 1407 1404 1400 1397 1393 1389 1384 1379 1375 1371 1367 1363 1360 1358 1355 1353 1352 1351 1349 1348 1348 1349 1350 1352 1354
1420 1421 1421 1421 1420 1420 1419 1417 1415 1413 1409 1402 1399 1397 1394 1392 1388 1384 1380 1375 1370 1366 1362 1357 1353 1351 1348 1346 1344 1343 1342 1341 1341 1341 1341 1343 1344 1346
1410 1410 1411 1411 1410 1410 1409 1408 1406 1404 1401 1396 1390 1388 1385 1382 1379 1374 1370 1366 1362 1357 1353 1348 1345 1342 1339 1336 1335 1334 1333 1333 1333 1333 1334 1335 1337 1339
1400 1400 1401 1401 1401 1401 1400 1398 1397 1395 1392 1388 1383 1379 1376 1373 1371 1366 1361 1358 1353 1349 1345 1340 1336 1333 1330 1327 1325 1325 1324 1324 1325 1326 1327 1328 1330 1332
1390 1390 1391 1391 1391 1391 1390 1388 1387 1385 1382 1379 1375 1371 1368 1365 1362 1358 1354 1349 1345 1342 1337 1332 1329 1325 1321 1319 1317 1316 1316 1316 1317 1318 1319 1321 1323 1326
1380 1381 1381 1381 1381 1381 1381 1380 1379 1377 1373 1371 1367 1363 1359 1357 1354 1350 1346 1342 1336 1335 1330 1324 1322 1317 1314 1311 1309 1308 1308 1308 1309 1310 1312 1314 1317 1319
1370 1371 1371 1371 1372 1372 1371 1370 1369 1367 1365 1363 1358 1354 1351 1349 1346 1342 1338 1334 1329 1326 1323 1316 1314 1309 1306 1304 1302 1300 1300 1300 1301 1302 1304 1306 1309 1312
1360 1362 1362 1362 1363 1363 1362 1360 1358 1356 1355 1352 1349 1345 1343 1340 1337 1333 1329 1325 1320 1318 1316 1310 1306 1303 1299 1296 1294 1292 1292 1292 1293 1294 1296 1299 1302 1305
1351 1352 1353 1353 1354 1354 1353 1351 1348 1346 1345 1342 1339 1336 1333 1331 1329 1325 1321 1317 1312 1309 1308 1304 1299 1296 1291 1288 1287 1285 1284 1284 1285 1287 1289 1292 1295 1298
1342 1343 1344 1345 1345 1345 1345 1343 1340 1338 1336 1333 1330 1327 1324 1321 1319 1317 1313 1309 1305 1302 1299 1297 1294 1291 1286 1282 1281 1279 1278 1278 1278 1279 1282 1285 1288 1292
1334 1335 1336 1337 1337 1337 1337 1335 1333 1331 1328 1325 1322 1319 1316 1313 1310 1307 1304 1302 1298 1295 1293 1291 1288 1286 1283 1278 1275 1274 1273 1273 1273 1273 1275 1278 1281 1285
1326 1327 1328 1329 1329 1329 1329 1327 1326 1324 1320 1317 1315 1312 1309 1306 1303 1299 1296 1293 1290 1287 1285 1284 1281 1279 1277 1274 1270 1268 1268 1268 1267 1267 1269 1271 1274 1278
1319 1320 1321 1322 1322 1321 1321 1319 1318 1316 1313 1311 1308 1305 1302 1299 1295 1291 1288 1285 1281 1279 1276 1275 1273 1271 1270 1267 1264 1263 1262 1261 1261 1261 1263 1265 1268 1272
1313 1314 1315 1315 1315 1314 1313 1312 1310 1309 1307 1304 1301 1298 1295 1291 1288 1285 1281 1278 1275 1271 1269 1267 1265 1264 1262 1260 1259 1256 1256 1256 1255 1257 1258 1259 1261 1265
1306 1307 1308 1308 1308 1307 1306 1305 1304 1302 1300 1298 1295 1292 1288 1285 1282 1279 1275 1272 1269 1265 1262 1260 1258 1256 1255 1253 1251 1249 1249 1249 1250 1251 1253 1254 1256 1259
1301 1301 1301 1301 1301 1301 1300 1299 1297 1296 1294 1292 1289 1286 1283 1279 1276 1273 1270 1266 1263 1259 1256 1254 1252 1250 1249 1245 1244 1242 1242 1243 1244 1246 1247 1248 1250 1253
1295 1294 1295 1295 1295 1294 1293 1292 1291 1289 1287 1285 1283 1280 1277 1274 1270 1267 1264 1260 1257 1253 1250 1248 1246 1245 1243 1240 1237 1236 1236 1237 1238 1240 1241 1243 1245 1248
1288 1289 1289 1289 1289 1288 1287 1286 1285 1283 1281 1279 1277 1274 1271 1268 1265 1261 1258 1254 1251 1247 1244 1241 1240 1238 1236 1235 1233 1230 1231 1231 1232 1234 1236 1238 1240 1244
1282 1283 1283 1283 1283 1282 1282 1281 1279 1277 1275 1273 1271 1268 1265 1262 1259 1256 1252 1248 1245 1241 1238 1235 1233 1232 1230 1229 1226 1222 1224 1225 1226 1228 1231 1234 1236 1239
1277 1278 1278 1278 1278 1277 1276 1275 1274 1272 1270 1268 1265 1263 1260 1257 1253 1250 1246 1243 1239 1235 1232 1229 1227 1226 1224 1223 1220 1218 1218 1219 1221 1223 1226 1229 1231 1235
1272 1273 1273 1273 1273 1272 1271 1270 1268 1266 1264 1262 1260 1257 1255 1251 1248 1244 1241 1237 1233 1230 1226 1223 1221 1220 1218 1216 1215 1213 1213 1214 1215 1217 1219 1222 1226 1230